![]() |
EMODnet Physics ERDDAP
Easier access to scientific data |
log in|
Brought to you by EMODnet Physics |
| Dataset Title: | NDBC - Collection of dew point temperature (DEWT) TimeSeries - IN SITU MultiPointTimeSeriesObservation
|
| Institution: | NDBC (Dataset ID: TS_DEWT_NDBC) |
| Information: | Summary
| License
| FGDC
| ISO 19115
| Metadata
| Background
| Subset
| Data Access Form
| Make a graph
|
| Name | Last modified | Size | Description | |
|---|---|---|---|---|
| Parent Directory | - | - | ||
| HAXA2_TS_DEWT_012018.nc | 27-Oct-2024 11:06 | 429623 | ||
| HAXA2_TS_DEWT_012019.nc | 27-Oct-2024 11:06 | 429613 | ||
| HAXA2_TS_DEWT_012020.nc | 27-Oct-2024 11:06 | 449698 | ||
| HAXA2_TS_DEWT_012021.nc | 27-Oct-2024 11:06 | 427914 | ||
| HAXA2_TS_DEWT_012022.nc | 27-Oct-2024 11:06 | 429609 | ||
| HAXA2_TS_DEWT_012023.nc | 27-Oct-2024 11:06 | 429617 | ||
| HAXA2_TS_DEWT_022018.nc | 27-Oct-2024 11:06 | 429617 | ||
| HAXA2_TS_DEWT_022020.nc | 27-Oct-2024 11:06 | 429833 | ||
| HAXA2_TS_DEWT_022021.nc | 27-Oct-2024 11:06 | 429833 | ||
| HAXA2_TS_DEWT_022022.nc | 27-Oct-2024 11:06 | 429834 | ||
| HAXA2_TS_DEWT_022023.nc | 27-Oct-2024 11:06 | 429833 | ||
| HAXA2_TS_DEWT_022026.nc | 01-Mar-2026 06:03 | 429730 | ||
| HAXA2_TS_DEWT_032018.nc | 27-Oct-2024 11:06 | 429766 | ||
| HAXA2_TS_DEWT_032019.nc | 27-Oct-2024 11:06 | 425841 | ||
| HAXA2_TS_DEWT_032020.nc | 27-Oct-2024 11:06 | 429832 | ||
| HAXA2_TS_DEWT_032021.nc | 27-Oct-2024 11:06 | 429830 | ||
| HAXA2_TS_DEWT_032022.nc | 27-Oct-2024 11:06 | 429836 | ||
| HAXA2_TS_DEWT_032023.nc | 27-Oct-2024 11:06 | 429835 | ||
| HAXA2_TS_DEWT_032026.nc | 22-Mar-2026 07:58 | 429832 | ||
| HAXA2_TS_DEWT_042018.nc | 27-Oct-2024 11:07 | 429455 | ||
| HAXA2_TS_DEWT_042019.nc | 27-Oct-2024 11:07 | 991640 | ||
| HAXA2_TS_DEWT_042020.nc | 27-Oct-2024 11:07 | 1144229 | ||
| HAXA2_TS_DEWT_042021.nc | 27-Oct-2024 11:07 | 1221813 | ||
| HAXA2_TS_DEWT_042022.nc | 27-Oct-2024 11:07 | 1144133 | ||
| HAXA2_TS_DEWT_042023.nc | 27-Oct-2024 11:07 | 1144175 | ||
| HAXA2_TS_DEWT_052018.nc | 27-Oct-2024 11:07 | 1144162 | ||
| HAXA2_TS_DEWT_052019.nc | 27-Oct-2024 11:07 | 633627 | ||
| HAXA2_TS_DEWT_052020.nc | 27-Oct-2024 11:07 | 429268 | ||
| HAXA2_TS_DEWT_052021.nc | 27-Oct-2024 11:07 | 429265 | ||
| HAXA2_TS_DEWT_052022.nc | 27-Oct-2024 11:07 | 429269 | ||
| HAXA2_TS_DEWT_052023.nc | 27-Oct-2024 11:07 | 429273 | ||
| HAXA2_TS_DEWT_062018.nc | 27-Oct-2024 11:07 | 429285 | ||
| HAXA2_TS_DEWT_062019.nc | 27-Oct-2024 11:08 | 424424 | ||
| HAXA2_TS_DEWT_062020.nc | 27-Oct-2024 11:08 | 429277 | ||
| HAXA2_TS_DEWT_062021.nc | 27-Oct-2024 11:08 | 429248 | ||
| HAXA2_TS_DEWT_062022.nc | 27-Oct-2024 11:08 | 429276 | ||
| HAXA2_TS_DEWT_062023.nc | 27-Oct-2024 11:08 | 429262 | ||
| HAXA2_TS_DEWT_072018.nc | 27-Oct-2024 11:08 | 429284 | ||
| HAXA2_TS_DEWT_072019.nc | 27-Oct-2024 11:08 | 429293 | ||
| HAXA2_TS_DEWT_072020.nc | 27-Oct-2024 11:08 | 429278 | ||
| HAXA2_TS_DEWT_072021.nc | 27-Oct-2024 11:08 | 429288 | ||
| HAXA2_TS_DEWT_072022.nc | 27-Oct-2024 11:08 | 429295 | ||
| HAXA2_TS_DEWT_072023.nc | 27-Oct-2024 11:08 | 449783 | ||
| HAXA2_TS_DEWT_082018.nc | 27-Oct-2024 11:08 | 429291 | ||
| HAXA2_TS_DEWT_082019.nc | 27-Oct-2024 11:08 | 429291 | ||
| HAXA2_TS_DEWT_082020.nc | 27-Oct-2024 11:08 | 429278 | ||
| HAXA2_TS_DEWT_082021.nc | 27-Oct-2024 11:09 | 429286 | ||
| HAXA2_TS_DEWT_082022.nc | 27-Oct-2024 11:09 | 429488 | ||
| HAXA2_TS_DEWT_082023.nc | 27-Oct-2024 11:09 | 429494 | ||
| HAXA2_TS_DEWT_092018.nc | 27-Oct-2024 11:09 | 429491 | ||
| HAXA2_TS_DEWT_092019.nc | 27-Oct-2024 11:09 | 429493 | ||
| HAXA2_TS_DEWT_092020.nc | 27-Oct-2024 11:09 | 429494 | ||
| HAXA2_TS_DEWT_092021.nc | 27-Oct-2024 11:09 | 429491 | ||
| HAXA2_TS_DEWT_092022.nc | 27-Oct-2024 11:09 | 429487 | ||
| HAXA2_TS_DEWT_092023.nc | 27-Oct-2024 11:09 | 429491 | ||
| HAXA2_TS_DEWT_102018.nc | 27-Oct-2024 11:09 | 429490 | ||
| HAXA2_TS_DEWT_102019.nc | 27-Oct-2024 11:09 | 429490 | ||
| HAXA2_TS_DEWT_102020.nc | 27-Oct-2024 11:09 | 429492 | ||
| HAXA2_TS_DEWT_102021.nc | 27-Oct-2024 11:09 | 429491 | ||
| HAXA2_TS_DEWT_102022.nc | 27-Oct-2024 11:09 | 429479 | ||
| HAXA2_TS_DEWT_102023.nc | 27-Oct-2024 11:09 | 429637 | ||
| HAXA2_TS_DEWT_112018.nc | 27-Oct-2024 11:10 | 1100728 | ||
| HAXA2_TS_DEWT_112019.nc | 27-Oct-2024 11:10 | 918716 | ||
| HAXA2_TS_DEWT_112020.nc | 27-Oct-2024 11:10 | 1104405 | ||
| HAXA2_TS_DEWT_112021.nc | 27-Oct-2024 11:10 | 995704 | ||
| HAXA2_TS_DEWT_112022.nc | 27-Oct-2024 11:10 | 995677 | ||
| HAXA2_TS_DEWT_112023.nc | 27-Oct-2024 11:10 | 995715 | ||
| HAXA2_TS_DEWT_122017.nc | 27-Oct-2024 11:10 | 3001331 | ||
| HAXA2_TS_DEWT_122018.nc | 27-Oct-2024 11:10 | 427024 | ||
| HAXA2_TS_DEWT_122019.nc | 27-Oct-2024 11:10 | 429598 | ||
| HAXA2_TS_DEWT_122020.nc | 27-Oct-2024 11:10 | 429600 | ||
| HAXA2_TS_DEWT_122021.nc | 27-Oct-2024 11:10 | 429603 | ||
| HAXA2_TS_DEWT_122022.nc | 27-Oct-2024 11:10 | 429597 | ||
| HAXA2_TS_DEWT_122023.nc | 27-Nov-2024 01:34 | 423190 | ||